When you browse on this site, cookies collect data to enhance your experience and personalize the content and advertising you see.
Visit our Privacy Policy to learn more. By continuing to use the site, you agree to this use of cookies and data.
  • In Slovakia
  • List of Countries
  • For 7 days
  • Water Temperature
  • Satellite Maps
  • Weather Map
  • Weather Widgets
  • user-avatar
    Login

    Hourly Weather Hrazdan

    Today, 21 June, Friday

    Time Temperature Precipitation Wind Pressure Humidity
    00:00 +13°C° 0.4 mm 2 mps 611 mmHg 85%
    01:00 +13°C° 0.2 mm 2 mps 611 mmHg 84%
    02:00 +13°C° 0.2 mm 2 mps 611 mmHg 83%
    03:00 +13°C° 0.2 mm 2 mps 610 mmHg 82%
    04:00 +13°C° 0.1 mm 1 mps 611 mmHg 82%
    05:00 +14°C° 0.1 mm 1 mps 611 mmHg 82%
    06:00 +15°C° 0.1 mm 1 mps 611 mmHg 81%
    07:00 +16°C° 0.5 mm 1 mps 612 mmHg 77%
    08:00 +17°C° 0.5 mm 2 mps 612 mmHg 74%
    09:00 +18°C° 0.5 mm 2 mps 613 mmHg 70%
    10:00 +19°C° 1.2 mm 2 mps 613 mmHg 68%
    11:00 +20°C° 1.2 mm 2 mps 613 mmHg 66%
    12:00 +20°C° 1.2 mm 2 mps 613 mmHg 64%
    13:00 +21°C° 1 mm 2 mps 613 mmHg 64%
    14:00 +21°C° 1 mm 2 mps 613 mmHg 63%
    15:00 +21°C° 1 mm 2 mps 613 mmHg 62%
    16:00 +21°C° 0.7 mm 2 mps 613 mmHg 68%
    17:00 +20°C° 0.7 mm 2 mps 612 mmHg 73%
    18:00 +19°C° 0.7 mm 2 mps 612 mmHg 78%
    19:00 +17°C° 0.4 mm 2 mps 612 mmHg 79%
    20:00 +16°C° 0.4 mm 2 mps 612 mmHg 80%
    21:00 +14°C° 0.4 mm 2 mps 612 mmHg 82%
    22:00 +14°C° 0 mm 2 mps 612 mmHg 82%
    23:00 +13°C° 0 mm 1 mps 612 mmHg 82%

    Tomorrow, 22 June, Saturday

    Time Temperature Precipitation Wind Pressure Humidity
    00:00 +13°C° 0 mm 1 mps 612 mmHg 83%
    01:00 +13°C° 0 mm 1 mps 612 mmHg 83%
    02:00 +13°C° 0 mm 1 mps 612 mmHg 83%
    03:00 +12°C° 0 mm 1 mps 612 mmHg 83%
    04:00 +13°C° 0 mm 1 mps 612 mmHg 83%
    05:00 +14°C° 0 mm 1 mps 613 mmHg 83%
    06:00 +15°C° 0 mm 1 mps 613 mmHg 83%
    07:00 +16°C° 0.1 mm 2 mps 614 mmHg 79%
    08:00 +18°C° 0.1 mm 2 mps 614 mmHg 75%
    09:00 +19°C° 0.1 mm 2 mps 615 mmHg 71%
    10:00 +20°C° 0.7 mm 2 mps 615 mmHg 69%
    11:00 +21°C° 0.7 mm 2 mps 615 mmHg 67%
    12:00 +21°C° 0.7 mm 2 mps 615 mmHg 66%
    13:00 +21°C° 0.9 mm 2 mps 615 mmHg 66%
    14:00 +23°C° 0.9 mm 2 mps 615 mmHg 66%
    15:00 +23°C° 0.9 mm 2 mps 615 mmHg 66%
    16:00 +21°C° 0.7 mm 2 mps 614 mmHg 69%
    17:00 +21°C° 0.7 mm 2 mps 614 mmHg 73%
    18:00 +20°C° 0.7 mm 2 mps 614 mmHg 77%
    19:00 +19°C° 0.4 mm 2 mps 614 mmHg 79%
    20:00 +17°C° 0.4 mm 2 mps 614 mmHg 80%
    21:00 +15°C° 0.4 mm 2 mps 614 mmHg 82%
    22:00 +15°C° 0.1 mm 2 mps 613 mmHg 83%
    23:00 +15°C° 0.1 mm 2 mps 613 mmHg 84%

    Day after tomorrow, 23 June, Sunday

    Time Temperature Precipitation Wind Pressure Humidity
    00:00 +14°C° 0.1 mm 2 mps 613 mmHg 84%
    01:00 +14°C° 0 mm 2 mps 613 mmHg 84%
    02:00 +14°C° 0 mm 2 mps 613 mmHg 83%
    03:00 +14°C° 0 mm 2 mps 613 mmHg 82%
    04:00 +15°C° 0 mm 1 mps 614 mmHg 82%
    05:00 +15°C° 0 mm 1 mps 614 mmHg 82%
    06:00 +16°C° 0 mm 1 mps 615 mmHg 82%
    07:00 +19°C° 0.1 mm 1 mps 615 mmHg 77%
    08:00 +19°C° 0.1 mm 2 mps 616 mmHg 73%
    09:00 +21°C° 0.1 mm 2 mps 616 mmHg 69%
    10:00 +23°C° 0.3 mm 2 mps 616 mmHg 65%
    11:00 +24°C° 0.3 mm 2 mps 617 mmHg 62%
    12:00 +25°C° 0.3 mm 2 mps 617 mmHg 59%
    13:00 +25°C° 0.3 mm 2 mps 617 mmHg 58%
    14:00 +25°C° 0.3 mm 2 mps 616 mmHg 57%
    15:00 +26°C° 0.3 mm 2 mps 616 mmHg 57%
    16:00 +25°C° 0.3 mm 2 mps 616 mmHg 63%
    17:00 +24°C° 0.3 mm 2 mps 615 mmHg 69%
    18:00 +23°C° 0.3 mm 2 mps 615 mmHg 75%
    19:00 +20°C° 0.1 mm 2 mps 615 mmHg 77%
    20:00 +18°C° 0.1 mm 2 mps 614 mmHg 79%
    21:00 +17°C° 0.1 mm 2 mps 614 mmHg 80%
    22:00 +16°C° 0 mm 2 mps 614 mmHg 80%
    23:00 +16°C° 0 mm 2 mps 614 mmHg 80%

    24 June, Monday

    Time Temperature Precipitation Wind Pressure Humidity
    00:00 +16°C° 0 mm 2 mps 614 mmHg 79%
    01:00 +16°C° 0 mm 2 mps 614 mmHg 80%
    02:00 +15°C° 0 mm 2 mps 614 mmHg 80%
    03:00 +15°C° 0 mm 2 mps 614 mmHg 80%
    04:00 +16°C° 0 mm 2 mps 614 mmHg 80%
    05:00 +16°C° 0 mm 1 mps 614 mmHg 79%
    06:00 +18°C° 0 mm 1 mps 615 mmHg 78%
    07:00 +19°C° 0 mm 2 mps 615 mmHg 74%
    08:00 +21°C° 0 mm 2 mps 616 mmHg 69%
    09:00 +23°C° 0 mm 2 mps 616 mmHg 64%
    10:00 +24°C° 0.2 mm 2 mps 616 mmHg 62%
    11:00 +25°C° 0.2 mm 2 mps 616 mmHg 60%
    12:00 +26°C° 0.2 mm 2 mps 617 mmHg 59%
    13:00 +26°C° 0.3 mm 2 mps 616 mmHg 57%
    14:00 +27°C° 0.3 mm 2 mps 616 mmHg 56%
    15:00 +27°C° 0.3 mm 2 mps 616 mmHg 55%
    16:00 +26°C° 0.3 mm 2 mps 616 mmHg 61%
    17:00 +25°C° 0.3 mm 2 mps 615 mmHg 68%
    18:00 +24°C° 0.3 mm 2 mps 615 mmHg 74%
    19:00 +21°C° 0.2 mm 2 mps 615 mmHg 75%
    20:00 +20°C° 0.2 mm 2 mps 614 mmHg 77%
    21:00 +18°C° 0.2 mm 2 mps 614 mmHg 78%
    22:00 +17°C° 0.1 mm 2 mps 614 mmHg 79%
    23:00 +17°C° 0.1 mm 2 mps 614 mmHg 80%

    25 June, Tuesday

    Time Temperature Precipitation Wind Pressure Humidity
    00:00 +16°C° 0.1 mm 2 mps 614 mmHg 81%
    01:00 +16°C° 0 mm 2 mps 614 mmHg 82%
    02:00 +16°C° 0 mm 2 mps 614 mmHg 82%
    03:00 +15°C° 0 mm 2 mps 614 mmHg 83%
    04:00 +16°C° 0 mm 2 mps 614 mmHg 82%
    05:00 +17°C° 0 mm 2 mps 614 mmHg 80%
    06:00 +19°C° 0 mm 1 mps 615 mmHg 79%
    07:00 +19°C° 0 mm 2 mps 615 mmHg 75%
    08:00 +21°C° 0 mm 2 mps 616 mmHg 71%
    09:00 +23°C° 0 mm 2 mps 616 mmHg 68%
    10:00 +24°C° 0.3 mm 2 mps 617 mmHg 65%
    11:00 +25°C° 0.3 mm 2 mps 617 mmHg 62%
    12:00 +26°C° 0.3 mm 2 mps 617 mmHg 60%
    13:00 +26°C° 0.4 mm 2 mps 617 mmHg 60%
    14:00 +26°C° 0.4 mm 2 mps 616 mmHg 60%
    15:00 +26°C° 0.4 mm 3 mps 616 mmHg 60%
    16:00 +25°C° 0.4 mm 2 mps 616 mmHg 64%
    17:00 +25°C° 0.4 mm 2 mps 615 mmHg 69%
    18:00 +24°C° 0.4 mm 2 mps 615 mmHg 74%
    19:00 +21°C° 0.2 mm 2 mps 615 mmHg 75%
    20:00 +19°C° 0.2 mm 2 mps 615 mmHg 77%
    21:00 +17°C° 0.2 mm 2 mps 614 mmHg 79%
    22:00 +17°C° 0 mm 2 mps 614 mmHg 78%
    23:00 +17°C° 0 mm 2 mps 614 mmHg 78%

    26 June, Wednesday

    Time Temperature Precipitation Wind Pressure Humidity
    00:00 +16°C° 0 mm 2 mps 614 mmHg 78%
    01:00 +16°C° 0 mm 2 mps 614 mmHg 78%
    02:00 +16°C° 0 mm 2 mps 614 mmHg 79%
    03:00 +16°C° 0 mm 2 mps 614 mmHg 80%
    04:00 +16°C° 0 mm 1 mps 614 mmHg 80%
    05:00 +18°C° 0 mm 1 mps 614 mmHg 80%
    06:00 +19°C° 0 mm 1 mps 614 mmHg 80%
    07:00 +20°C° 0.1 mm 1 mps 615 mmHg 75%
    08:00 +21°C° 0.1 mm 2 mps 615 mmHg 70%
    09:00 +24°C° 0.1 mm 2 mps 616 mmHg 66%
    10:00 +24°C° 0.5 mm 2 mps 616 mmHg 63%
    11:00 +25°C° 0.5 mm 2 mps 616 mmHg 60%
    12:00 +26°C° 0.5 mm 2 mps 615 mmHg 57%
    13:00 +26°C° 0.5 mm 2 mps 615 mmHg 57%
    14:00 +26°C° 0.5 mm 2 mps 615 mmHg 57%
    15:00 +27°C° 0.5 mm 2 mps 614 mmHg 57%
    16:00 +25°C° 1 mm 2 mps 614 mmHg 63%
    17:00 +24°C° 1 mm 3 mps 613 mmHg 70%
    18:00 +21°C° 1 mm 3 mps 612 mmHg 77%
    19:00 +20°C° 0.9 mm 3 mps 612 mmHg 78%
    20:00 +18°C° 0.9 mm 2 mps 612 mmHg 80%
    21:00 +16°C° 0.9 mm 2 mps 612 mmHg 81%
    22:00 +16°C° 0.3 mm 2 mps 611 mmHg 82%
    23:00 +16°C° 0.3 mm 2 mps 611 mmHg 83%
    Show more